[TLELIST] Archives

 

[list_settings.list_name] Current TLEs

April 26th 2021 PST

HST 1 20580U 90037B 21116.16461934 .00000725 00000-0 32949-4 0 9994 2 20580 28.4704 51.0524 0002589 215.1281 275.6264 15.09622811503356 ISS (ZARYA) 1 25544U 98067A 21116.36141100 .00002495 00000-0 53524-4 0 9990 2 25544 51.6433 239.0652 0002574 276.9816 184.4570 15.48941572280564 CXO 1 25867U 99040B 21117.86529115 .00000819 00000-0 00000-0 0 9997 2 25867 56.2551 257.1583 8240653 226.3791 0.1850 0.37805788 10240 ____________________________________________________________________ These 2-Line ...Continue Reading

[list_settings.list_name] Current TLEs

April 25th 2021 PST

TBA - TO BE ASSIGNED 1 20580U 90037B 21114.96158833 .00000662 00000-0 29098-4 0 9992 2 20580 28.4702 59.0119 0002638 201.8127 217.9406 15.09621151502978 TBA - TO BE ASSIGNED 1 25544U 98067A 21114.62154826 .00001929 00000-0 43263-4 0 9996 2 25544 51.6432 247.6705 0002585 270.7825 202.4775 15.48929355280294 TBA - TO BE ASSIGNED 1 25867U 99040B 21115.22018949 .00000957 00000-0 00000-0 0 9996 2 25867 56.3477 257.2996 8240259 226.3642 0.0946 0.37814138 10237 ________________________________________ ...Continue Reading

[list_settings.list_name] Current TLEs

April 24th 2021 PST

HST 1 20580U 90037B 21114.24997594 .00000631 00000-0 27256-4 0 9998 2 20580 28.4701 63.7201 0002666 194.1719 310.5605 15.09620238503060 ISS (ZARYA) 1 25544U 98067A 21114.11579102 .00002040 00000-0 45279-4 0 9992 2 25544 51.6443 250.1724 0002609 270.0731 261.1526 15.48927536280219 CXO 1 25867U 99040B 21115.22018949 .00000957 00000-0 00000-0 0 9996 2 25867 56.3477 257.2996 8240259 226.3642 0.0946 0.37814138 10237 ____________________________________________________________________ These 2-Line ...Continue Reading

[list_settings.list_name] Current TLEs

April 23rd 2021 PST

HST 1 20580U 90037B 21112.60062537 .00000647 00000-0 28202-4 0 9995 2 20580 28.4699 74.6326 0002727 176.5342 346.8176 15.09618525502610 ISS (ZARYA) 1 25544U 98067A 21113.19226883 .00001962 00000-0 43876-4 0 9997 2 25544 51.6444 254.7401 0002615 265.6775 152.4691 15.48922692280074 CXO 1 25867U 99040B 21115.22018949 .00000957 00000-0 00000-0 0 9996 2 25867 56.3477 257.2996 8240259 226.3642 0.0946 0.37814138 10237 ____________________________________________________________________ These 2-Line ...Continue Reading

[list_settings.list_name] Current TLEs

April 22nd 2021 PST

HST 1 20580U 90037B 21111.60903051 .00000682 00000-0 30315-4 0 9996 2 20580 28.4698 81.1933 0002768 166.0017 357.7197 15.09617601502465 ISS (ZARYA) 1 25544U 98067A 21112.31353994 .00001884 00000-0 42461-4 0 9996 2 25544 51.6450 259.0855 0002598 262.4425 292.5769 15.48918074279933 CXO 1 25867U 99040B 21112.57484486 .00001031 00000-0 00000-0 0 9998 2 25867 56.4433 257.4479 8237375 226.3202 0.0724 0.37810141 10239 ____________________________________________________________________ These 2-Line ...Continue Reading

[list_settings.list_name] Current TLEs

April 21st 2021 PST

HST 1 20580U 90037B 21111.25208917 .00000690 00000-0 30804-4 0 9998 2 20580 28.4697 83.5550 0002788 162.2090 217.8248 15.09617240502604 ISS (ZARYA) 1 25544U 98067A 21111.32448709 .00002169 00000-0 47651-4 0 9998 2 25544 51.6453 263.9763 0002499 260.2631 176.0648 15.48914512279781 CXO 1 25867U 99040B 21112.57484486 .00001031 00000-0 00000-0 0 9998 2 25867 56.4433 257.4479 8237375 226.3202 0.0724 0.37810141 10239 ____________________________________________________________________ These 2-Line ...Continue Reading

[list_settings.list_name] Current TLEs

April 20th 2021 PST

HST 1 20580U 90037B 21110.21009601 .00000670 00000-0 29623-4 0 9997 2 20580 28.4695 90.4493 0002829 151.4183 314.5512 15.09615980502444 ISS (ZARYA) 1 25544U 98067A 21110.35764769 .00002301 00000-0 50046-4 0 9997 2 25544 51.6451 268.7587 0002529 252.9449 188.6526 15.48910156279633 CXO 1 25867U 99040B 21112.57410873 .00001031 00000-0 00000-0 0 9997 2 25867 56.4432 257.4480 8237390 226.3203 359.9715 0.37809443 10226 ____________________________________________________________________ These 2-Line ...Continue Reading

[list_settings.list_name] Current TLEs

April 19th 2021 PST

HST 1 20580U 90037B 21108.70003705 .00000613 00000-0 26163-4 0 9990 2 20580 28.4693 100.4406 0002869 135.9543 27.1568 15.09614185502027 ISS (ZARYA) 1 25544U 98067A 21109.44522394 .00001596 00000-0 37223-4 0 9998 2 25544 51.6453 273.2721 0002496 246.4626 144.0355 15.48902523279493 CXO 1 25867U 99040B 21109.93009294 .00000985 00000-0 00000-0 0 9991 2 25867 56.5016 257.5500 8232684 226.2960 0.1293 0.37804825 10224 ____________________________________________________________________ These 2-Line ...Continue Reading

[list_settings.list_name] Current TLEs

April 18th 2021 PST

HST 1 20580U 90037B 21107.70835520 .00000535 00000-0 21436-4 0 9998 2 20580 28.4692 107.0021 0002889 125.9053 37.1160 15.09612797501877 ISS (ZARYA) 1 25544U 98067A 21108.42295789 .00000927 00000-0 25054-4 0 9996 2 25544 51.6449 278.3283 0002643 241.5252 205.0036 15.48895119279331 CXO 1 25867U 99040B 21109.93009294 .00000985 00000-0 00000-0 0 9991 2 25867 56.5016 257.5500 8232684 226.2960 0.1293 0.37804825 10224 ____________________________________________________________________ These 2-Line ...Continue Reading

[list_settings.list_name] Current TLEs

April 17th 2021 PST

HST 1 20580U 90037B 21106.45019931 .00000495 00000-0 19011-4 0 9990 2 20580 28.4691 115.3267 0002921 113.4276 38.4574 15.09611579501685 ISS (ZARYA) 1 25544U 98067A 21107.38879644 .00000946 00000-0 25412-4 0 9997 2 25544 51.6445 283.4409 0002680 236.1347 200.0897 15.48892388279177 CXO 1 25867U 99040B 21107.28550558 .00000888 00000-0 00000+0 0 9992 2 25867 56.5502 257.6372 8228202 226.2821 0.1744 0.37803532 21349 ____________________________________________________________________ These 2-Line ...Continue Reading
  • This mailing list is a public mailing list - anyone may join or leave, at any time.
  • This mailing list is announce-only.

International Space Station (ISS) / Hubble Space Telescope (HST) / Chandra X-Ray Observatory Orbital Data via EMAIL

Privacy Policy:

Private list